Location: Unspecified
(0.0000°N, 0.0000°E)
Time: 13:49:47
(UTC+00:00)

BEESAT - Pass Details

Date: 04 June 2019
Orbit: 700 x 709 km, 98.6° (Epoch: 19 June)

Event Time Altitude Azimuth Distance (km) Brightness Sun altitude
Rises 04:01:30 0° 151° (SSE) 3,099 ? -26.8°
Reaches altitude 10° 04:03:57 10° 141° (SE) 2,179 ? -26.2°
Maximum altitude 04:08:14 33° 77° (ENE) 1,179 ? -25.3°
Drops below altitude 10° 04:12:29 10° 14° (NNE) 2,172 ? -24.3°
Sets 04:14:54 0° 5° (N) 3,088 ? -23.8°
